TimePDT,TemperatureF,Dew PointF,Humidity,Sea Level PressureIn,VisibilityMPH,Wind Direction,Wind SpeedMPH,Gust SpeedMPH,PrecipitationIn,Events,Conditions,WindDirDegrees,DateUTC
12:56 AM,84.9,57.9,40,29.85,10.0,South,6.9,-,N/A,,Clear,190,2013-07-24 07:56:00
1:56 AM,84.0,57.0,40,29.86,10.0,South,8.1,-,N/A,,Clear,170,2013-07-24 08:56:00
2:56 AM,84.0,57.0,40,29.85,10.0,South,10.4,-,N/A,,Clear,190,2013-07-24 09:56:00
3:56 AM,82.9,57.0,41,29.85,10.0,SSW,10.4,-,N/A,,Clear,200,2013-07-24 10:56:00
4:56 AM,79.0,59.0,50,29.86,10.0,West,5.8,-,N/A,,Clear,260,2013-07-24 11:56:00
5:56 AM,78.1,59.0,52,29.87,10.0,Calm,Calm,-,N/A,,Clear,0,2013-07-24 12:56:00
6:56 AM,80.1,59.0,48,29.88,10.0,Calm,Calm,-,N/A,,Clear,0,2013-07-24 13:56:00
7:56 AM,82.9,59.0,44,29.88,10.0,Calm,Calm,-,N/A,,Clear,0,2013-07-24 14:56:00
8:56 AM,89.1,59.0,36,29.89,10.0,SE,3.5,-,N/A,,Clear,140,2013-07-24 15:56:00
9:56 AM,93.0,57.9,31,29.89,10.0,Calm,Calm,-,N/A,,Clear,0,2013-07-24 16:56:00
10:56 AM,97.0,57.0,26,29.88,10.0,WSW,3.5,-,N/A,,Partly Cloudy,250,2013-07-24 17:56:00
11:56 AM,100.0,57.0,24,29.86,10.0,Variable,4.6,-,N/A,,Partly Cloudy,0,2013-07-24 18:56:00
12:56 PM,102.0,55.0,21,29.84,10.0,Variable,4.6,-,N/A,,Scattered Clouds,0,2013-07-24 19:56:00
1:56 PM,106.0,54.0,18,29.82,10.0,NE,8.1,-,N/A,,Mostly Cloudy,50,2013-07-24 20:56:00
2:56 PM,107.1,52.0,16,29.79,10.0,SSE,8.1,-,N/A,,Mostly Cloudy,150,2013-07-24 21:56:00
3:56 PM,108.0,48.9,14,29.76,10.0,SSE,8.1,-,N/A,,Mostly Cloudy,150,2013-07-24 22:56:00
4:56 PM,107.1,51.1,16,29.75,10.0,Variable,5.8,-,N/A,,Mostly Cloudy,0,2013-07-24 23:56:00
5:56 PM,106.0,48.0,14,29.73,10.0,Variable,6.9,16.1,N/A,,Mostly Cloudy,0,2013-07-25 00:56:00
6:56 PM,104.0,46.9,15,29.74,10.0,SSW,13.8,-,N/A,,Mostly Cloudy,210,2013-07-25 01:56:00
7:56 PM,99.0,48.0,18,29.75,10.0,WSW,11.5,-,N/A,,Mostly Cloudy,250,2013-07-25 02:56:00
8:56 PM,96.1,46.9,19,29.77,10.0,WSW,5.8,-,N/A,,Scattered Clouds,240,2013-07-25 03:56:00
9:56 PM,91.0,48.9,23,29.78,10.0,SSE,3.5,-,N/A,,Scattered Clouds,160,2013-07-25 04:56:00
10:56 PM,89.1,50.0,26,29.79,10.0,SSE,4.6,-,N/A,,Clear,160,2013-07-25 05:56:00
11:56 PM,86.0,51.1,30,29.80,10.0,South,3.5,-,N/A,,Clear,170,2013-07-25 06:56:00